Year,Month,Day,Hour,Minute,Value (Times are PST for temperature in C)
2008,05,25,00,00,14.80
2008,05,25,00,01,14.90
2008,05,25,00,02,15.00
2008,05,25,00,03,15.00
2008,05,25,00,04,15.10
2008,05,25,00,05,15.10
2008,05,25,00,06,15.20
2008,05,25,00,07,15.20
2008,05,25,00,08,15.20
2008,05,25,00,09,15.20
2008,05,25,00,10,15.20
2008,05,25,00,11,15.20
2008,05,25,00,12,15.20
2008,05,25,00,13,15.10
2008,05,25,00,14,15.10
2008,05,25,00,15,15.10
2008,05,25,00,16,15.10
2008,05,25,00,17,15.00
2008,05,25,00,18,15.00
2008,05,25,00,19,15.00
2008,05,25,00,20,14.90
2008,05,25,00,21,14.90
2008,05,25,00,22,14.80
2008,05,25,00,23,14.80
2008,05,25,00,24,14.70
2008,05,25,00,25,14.60
2008,05,25,00,26,14.60
2008,05,25,00,27,14.60
2008,05,25,00,28,14.50
2008,05,25,00,29,14.50
2008,05,25,00,30,14.40
2008,05,25,00,31,14.40
2008,05,25,00,32,14.40
2008,05,25,00,33,14.40
2008,05,25,00,34,14.30
2008,05,25,00,35,14.30
2008,05,25,00,36,14.30
2008,05,25,00,37,14.20
2008,05,25,00,38,14.20
2008,05,25,00,39,14.20
2008,05,25,00,40,14.20
2008,05,25,00,41,14.20
2008,05,25,00,42,14.20
2008,05,25,00,43,14.20
2008,05,25,00,44,14.20
2008,05,25,00,45,14.20
2008,05,25,00,46,14.20
2008,05,25,00,47,14.30
2008,05,25,00,48,14.30
2008,05,25,00,49,14.30
2008,05,25,00,50,14.30
2008,05,25,00,51,14.30
2008,05,25,00,52,14.30
2008,05,25,00,53,14.20
2008,05,25,00,54,14.20
2008,05,25,00,55,14.20
2008,05,25,00,56,14.20
2008,05,25,00,57,14.20
2008,05,25,00,58,14.30
2008,05,25,00,59,14.30
2008,05,25,01,00,14.30
2008,05,25,01,01,14.30
2008,05,25,01,02,14.30
2008,05,25,01,03,14.30
2008,05,25,01,04,14.30
2008,05,25,01,05,14.40
2008,05,25,01,06,14.40
2008,05,25,01,07,14.40
2008,05,25,01,08,14.50
2008,05,25,01,09,14.50
2008,05,25,01,10,14.50
2008,05,25,01,11,14.50
2008,05,25,01,12,14.60
2008,05,25,01,13,14.60
2008,05,25,01,14,14.60
2008,05,25,01,15,14.60
2008,05,25,01,16,14.70
2008,05,25,01,17,14.70
2008,05,25,01,18,14.70
2008,05,25,01,19,14.80
2008,05,25,01,20,14.80
2008,05,25,01,21,14.80
2008,05,25,01,22,14.80
2008,05,25,01,23,14.80
2008,05,25,01,24,14.80
2008,05,25,01,25,14.80
2008,05,25,01,26,14.80
2008,05,25,01,27,14.80
2008,05,25,01,28,14.80
2008,05,25,01,29,14.80
2008,05,25,01,30,14.80
2008,05,25,01,31,14.80
2008,05,25,01,32,14.80
2008,05,25,01,33,14.80
2008,05,25,01,34,14.80
2008,05,25,01,35,14.80
2008,05,25,01,36,14.80
2008,05,25,01,37,14.80
2008,05,25,01,38,14.80
2008,05,25,01,39,14.80
2008,05,25,01,40,14.70
2008,05,25,01,41,14.70
2008,05,25,01,42,14.60
2008,05,25,01,43,14.60
2008,05,25,01,44,14.60
2008,05,25,01,45,14.60
2008,05,25,01,46,14.60
2008,05,25,01,47,14.50
2008,05,25,01,48,14.50
2008,05,25,01,49,14.50
2008,05,25,01,50,14.50
2008,05,25,01,51,14.40
2008,05,25,01,52,14.40
2008,05,25,01,53,14.30
2008,05,25,01,54,14.20
2008,05,25,01,55,14.00
2008,05,25,01,56,14.00
2008,05,25,01,57,13.90
2008,05,25,01,58,13.80
2008,05,25,01,59,13.70
2008,05,25,02,00,13.70
2008,05,25,02,01,13.70
2008,05,25,02,02,13.70
2008,05,25,02,03,13.60
2008,05,25,02,04,13.60
2008,05,25,02,05,13.60
2008,05,25,02,06,13.60
2008,05,25,02,07,13.60
2008,05,25,02,08,13.60
2008,05,25,02,09,13.60
2008,05,25,02,10,13.60
2008,05,25,02,11,13.50
2008,05,25,02,12,13.50
2008,05,25,02,13,13.50
2008,05,25,02,14,13.50
2008,05,25,02,15,13.50
2008,05,25,02,16,13.50
2008,05,25,02,17,13.50
2008,05,25,02,18,13.50
2008,05,25,02,19,13.40
2008,05,25,02,20,13.40
2008,05,25,02,21,13.40
2008,05,25,02,22,13.40
2008,05,25,02,23,13.40
2008,05,25,02,24,13.40
2008,05,25,02,25,13.30
2008,05,25,02,26,13.30
2008,05,25,02,27,13.30
2008,05,25,02,28,13.30
2008,05,25,02,29,13.30
2008,05,25,02,30,13.30
2008,05,25,02,31,13.30
2008,05,25,02,32,13.30
2008,05,25,02,33,13.30
2008,05,25,02,34,13.30
2008,05,25,02,35,13.30
2008,05,25,02,36,13.30
2008,05,25,02,37,13.30
2008,05,25,02,38,13.30
2008,05,25,02,39,13.30
2008,05,25,02,40,13.30
2008,05,25,02,41,13.30
2008,05,25,02,42,13.30
2008,05,25,02,43,13.30
2008,05,25,02,44,13.30
2008,05,25,02,45,13.30
2008,05,25,02,46,13.30
2008,05,25,02,47,13.30
2008,05,25,02,48,13.30
2008,05,25,02,49,13.30
2008,05,25,02,50,13.30
2008,05,25,02,51,13.20
2008,05,25,02,52,13.20
2008,05,25,02,53,13.20
2008,05,25,02,54,13.20
2008,05,25,02,55,13.20
2008,05,25,02,56,13.20
2008,05,25,02,57,13.10
2008,05,25,02,58,13.10
2008,05,25,02,59,13.10
2008,05,25,03,00,13.10
2008,05,25,03,01,13.10
2008,05,25,03,02,13.10
2008,05,25,03,03,13.10
2008,05,25,03,04,13.10
2008,05,25,03,05,13.10
2008,05,25,03,06,13.10
2008,05,25,03,07,13.10
2008,05,25,03,08,13.10
2008,05,25,03,09,13.10
2008,05,25,03,10,13.10
2008,05,25,03,11,13.10
2008,05,25,03,12,13.10
2008,05,25,03,13,13.10
2008,05,25,03,14,13.10
2008,05,25,03,15,13.10
2008,05,25,03,16,13.20
2008,05,25,03,17,13.20
2008,05,25,03,18,13.20
2008,05,25,03,19,13.20
2008,05,25,03,20,13.20
2008,05,25,03,21,13.20
2008,05,25,03,22,13.20
2008,05,25,03,23,13.20
2008,05,25,03,24,13.20
2008,05,25,03,25,13.20
2008,05,25,03,26,13.20
2008,05,25,03,27,13.30
2008,05,25,03,28,13.30
2008,05,25,03,29,13.30
2008,05,25,03,30,13.30
2008,05,25,03,31,13.30
2008,05,25,03,32,13.30
2008,05,25,03,33,13.30
2008,05,25,03,34,13.30
2008,05,25,03,35,13.30
2008,05,25,03,36,13.30
2008,05,25,03,37,13.30
2008,05,25,03,38,13.30
2008,05,25,03,39,13.30
2008,05,25,03,40,13.30
2008,05,25,03,41,13.30
2008,05,25,03,42,13.30
2008,05,25,03,43,13.30
2008,05,25,03,44,13.40
2008,05,25,03,45,13.40
2008,05,25,03,46,13.40
2008,05,25,03,47,13.40
2008,05,25,03,48,13.40
2008,05,25,03,49,13.40
2008,05,25,03,50,13.30
2008,05,25,03,51,13.30
2008,05,25,03,52,13.30
2008,05,25,03,53,13.20
2008,05,25,03,54,13.20
2008,05,25,03,55,13.10
2008,05,25,03,56,13.10
2008,05,25,03,57,13.10
2008,05,25,03,58,13.10
2008,05,25,03,59,13.10
2008,05,25,04,00,13.10
2008,05,25,04,01,13.10
2008,05,25,04,02,13.10
2008,05,25,04,03,13.10
2008,05,25,04,04,13.10
2008,05,25,04,05,13.10
2008,05,25,04,06,13.10
2008,05,25,04,07,13.10
2008,05,25,04,08,13.10
2008,05,25,04,09,13.10
2008,05,25,04,10,13.10
2008,05,25,04,11,13.10
2008,05,25,04,12,13.10
2008,05,25,04,13,13.10
2008,05,25,04,14,13.10
2008,05,25,04,15,13.10
2008,05,25,04,16,13.10
2008,05,25,04,17,13.10
2008,05,25,04,18,13.20
2008,05,25,04,19,13.20
2008,05,25,04,20,13.20
2008,05,25,04,21,13.20
2008,05,25,04,22,13.20
2008,05,25,04,23,13.20
2008,05,25,04,24,13.20
2008,05,25,04,25,13.30
2008,05,25,04,26,13.30
2008,05,25,04,27,13.30
2008,05,25,04,28,13.30
2008,05,25,04,29,13.30
2008,05,25,04,30,13.30
2008,05,25,04,31,13.30
2008,05,25,04,32,13.30
2008,05,25,04,33,13.30
2008,05,25,04,34,13.40
2008,05,25,04,35,13.40
2008,05,25,04,36,13.40
2008,05,25,04,37,13.50
2008,05,25,04,38,13.50
2008,05,25,04,39,13.50
2008,05,25,04,40,13.50
2008,05,25,04,41,13.50
2008,05,25,04,42,13.50
2008,05,25,04,43,13.50
2008,05,25,04,44,13.50
2008,05,25,04,45,13.50
2008,05,25,04,46,13.50
2008,05,25,04,47,13.40
2008,05,25,04,48,13.40
2008,05,25,04,49,13.40
2008,05,25,04,50,13.40
2008,05,25,04,51,13.40
2008,05,25,04,52,13.50
2008,05,25,04,53,13.50
2008,05,25,04,54,13.50
2008,05,25,04,55,13.50
2008,05,25,04,56,13.50
2008,05,25,04,57,13.50
2008,05,25,04,58,13.50
2008,05,25,04,59,13.50
2008,05,25,05,00,13.60
2008,05,25,05,01,13.60
2008,05,25,05,02,13.60
2008,05,25,05,03,13.60
2008,05,25,05,04,13.70
2008,05,25,05,05,13.70
2008,05,25,05,06,13.70
2008,05,25,05,07,13.70
2008,05,25,05,08,13.70
2008,05,25,05,09,13.70
2008,05,25,05,10,13.80
2008,05,25,05,11,13.80
2008,05,25,05,12,13.90
2008,05,25,05,13,13.90
2008,05,25,05,14,13.90
2008,05,25,05,15,14.00
2008,05,25,05,16,14.00
2008,05,25,05,17,14.00
2008,05,25,05,18,14.00
2008,05,25,05,19,14.00
2008,05,25,05,20,14.00
2008,05,25,05,21,14.00
2008,05,25,05,22,14.00
2008,05,25,05,23,14.00
2008,05,25,05,24,14.00
2008,05,25,05,25,14.00
2008,05,25,05,26,14.00
2008,05,25,05,27,14.00
2008,05,25,05,28,14.00
2008,05,25,05,29,14.00
2008,05,25,05,30,14.00
2008,05,25,05,31,14.10
2008,05,25,05,32,14.10
2008,05,25,05,33,14.10
2008,05,25,05,34,14.10
2008,05,25,05,35,14.10
2008,05,25,05,36,14.10
2008,05,25,05,37,14.10
2008,05,25,05,38,14.10
2008,05,25,05,39,14.10
2008,05,25,05,40,14.10
2008,05,25,05,41,14.10
2008,05,25,05,42,14.20
2008,05,25,05,43,14.20
2008,05,25,05,44,14.20
2008,05,25,05,45,14.20
2008,05,25,05,46,14.20
2008,05,25,05,47,14.20
2008,05,25,05,48,14.20
2008,05,25,05,49,14.20
2008,05,25,05,50,14.10
2008,05,25,05,51,14.10
2008,05,25,05,52,14.10
2008,05,25,05,53,14.10
2008,05,25,05,54,14.10
2008,05,25,05,55,14.10
2008,05,25,05,56,14.20
2008,05,25,05,57,14.20
2008,05,25,05,58,14.20
2008,05,25,05,59,14.20
2008,05,25,06,00,14.20
2008,05,25,06,01,14.20
2008,05,25,06,02,14.20
2008,05,25,06,03,14.20
2008,05,25,06,04,14.20
2008,05,25,06,05,14.20
2008,05,25,06,06,14.20
2008,05,25,06,07,14.20
2008,05,25,06,08,14.20
2008,05,25,06,09,14.20
2008,05,25,06,10,14.10
2008,05,25,06,11,14.10
2008,05,25,06,12,14.10
2008,05,25,06,13,14.10
2008,05,25,06,14,14.10
2008,05,25,06,15,14.10
2008,05,25,06,16,14.00
2008,05,25,06,17,14.00
2008,05,25,06,18,14.00
2008,05,25,06,19,13.90
2008,05,25,06,20,13.90
2008,05,25,06,21,13.80
2008,05,25,06,22,13.80
2008,05,25,06,23,13.70
2008,05,25,06,24,13.70
2008,05,25,06,25,13.70
2008,05,25,06,26,13.70
2008,05,25,06,27,13.60
2008,05,25,06,28,13.60
2008,05,25,06,29,13.60
2008,05,25,06,30,13.60
2008,05,25,06,31,13.50
2008,05,25,06,32,13.50
2008,05,25,06,33,13.50
2008,05,25,06,34,13.50
2008,05,25,06,35,13.50
2008,05,25,06,36,13.50
2008,05,25,06,37,13.40
2008,05,25,06,38,13.40
2008,05,25,06,39,13.40
2008,05,25,06,40,13.40
2008,05,25,06,41,13.40
2008,05,25,06,42,13.40
2008,05,25,06,43,13.30
2008,05,25,06,44,13.30
2008,05,25,06,45,13.30
2008,05,25,06,46,13.30
2008,05,25,06,47,13.30
2008,05,25,06,48,13.30
2008,05,25,06,49,13.20
2008,05,25,06,50,13.20
2008,05,25,06,51,13.20
2008,05,25,06,52,13.10
2008,05,25,06,53,13.10
2008,05,25,06,54,13.10
2008,05,25,06,55,13.10
2008,05,25,06,56,13.00
2008,05,25,06,57,13.00
2008,05,25,06,58,13.00
2008,05,25,06,59,13.10
2008,05,25,07,00,13.10
2008,05,25,07,01,13.10
2008,05,25,07,02,13.10
2008,05,25,07,03,13.10
2008,05,25,07,04,13.10
2008,05,25,07,05,13.20
2008,05,25,07,06,13.20
2008,05,25,07,07,13.20
2008,05,25,07,08,13.30
2008,05,25,07,09,13.30
2008,05,25,07,10,13.30
2008,05,25,07,11,13.30
2008,05,25,07,12,13.30
2008,05,25,07,13,13.30
2008,05,25,07,14,13.30
2008,05,25,07,15,13.40
2008,05,25,07,16,13.40
2008,05,25,07,17,13.40
2008,05,25,07,18,13.50
2008,05,25,07,19,13.50
2008,05,25,07,20,13.50
2008,05,25,07,21,13.50
2008,05,25,07,22,13.60
2008,05,25,07,23,13.60
2008,05,25,07,24,13.60
2008,05,25,07,25,13.60
2008,05,25,07,26,13.70
2008,05,25,07,27,13.70
2008,05,25,07,28,13.70
2008,05,25,07,29,13.70
2008,05,25,07,30,13.80
2008,05,25,07,31,13.80
2008,05,25,07,32,13.90
2008,05,25,07,33,13.90
2008,05,25,07,34,14.00
2008,05,25,07,35,14.00
2008,05,25,07,36,14.10
2008,05,25,07,37,14.10
2008,05,25,07,38,14.20
2008,05,25,07,39,14.20
2008,05,25,07,40,14.20
2008,05,25,07,41,14.20
2008,05,25,07,42,14.30
2008,05,25,07,43,14.30
2008,05,25,07,44,14.40
2008,05,25,07,45,14.40
2008,05,25,07,46,14.40
2008,05,25,07,47,14.50
2008,05,25,07,48,14.50
2008,05,25,07,49,14.50
2008,05,25,07,50,14.60
2008,05,25,07,51,14.60
2008,05,25,07,52,14.70
2008,05,25,07,53,14.70
2008,05,25,07,54,14.70
2008,05,25,07,55,14.80
2008,05,25,07,56,14.80
2008,05,25,07,57,14.80
2008,05,25,07,58,14.90
2008,05,25,07,59,14.90
2008,05,25,08,00,15.00
2008,05,25,08,01,15.00
2008,05,25,08,02,15.00
2008,05,25,08,03,15.10
2008,05,25,08,04,15.10
2008,05,25,08,05,15.10
2008,05,25,08,06,15.10
2008,05,25,08,07,15.20
2008,05,25,08,08,15.20
2008,05,25,08,09,15.20
2008,05,25,08,10,15.20
2008,05,25,08,11,15.20
2008,05,25,08,12,15.20
2008,05,25,08,13,15.30
2008,05,25,08,14,15.30
2008,05,25,08,15,15.30
2008,05,25,08,16,15.30
2008,05,25,08,17,15.30
2008,05,25,08,18,15.30
2008,05,25,08,19,15.30
2008,05,25,08,20,15.30
2008,05,25,08,21,15.30
2008,05,25,08,22,15.30
2008,05,25,08,23,15.30
2008,05,25,08,24,15.30
2008,05,25,08,25,15.30
2008,05,25,08,26,15.30
2008,05,25,08,27,15.30
2008,05,25,08,28,15.30
2008,05,25,08,29,15.30
2008,05,25,08,30,15.30
2008,05,25,08,31,15.30
2008,05,25,08,32,15.30
2008,05,25,08,33,15.30
2008,05,25,08,34,15.30
2008,05,25,08,35,15.30
2008,05,25,08,36,15.30
2008,05,25,08,37,15.30
2008,05,25,08,38,15.30
2008,05,25,08,39,15.20
2008,05,25,08,40,15.00
2008,05,25,08,41,14.90
2008,05,25,08,42,14.70
2008,05,25,08,43,14.60
2008,05,25,08,44,14.50
2008,05,25,08,45,14.40
2008,05,25,08,46,14.30
2008,05,25,08,47,14.20
2008,05,25,08,48,14.20
2008,05,25,08,49,14.10
2008,05,25,08,50,14.10
2008,05,25,08,51,14.10
2008,05,25,08,52,14.00
2008,05,25,08,53,14.00
2008,05,25,08,54,14.00
2008,05,25,08,55,14.00
2008,05,25,08,56,14.10
2008,05,25,08,57,14.10
2008,05,25,08,58,14.20
2008,05,25,08,59,14.20
2008,05,25,09,00,14.30
2008,05,25,09,01,14.30
2008,05,25,09,02,14.40
2008,05,25,09,03,14.40
2008,05,25,09,04,14.40
2008,05,25,09,05,14.50
2008,05,25,09,06,14.50
2008,05,25,09,07,14.60
2008,05,25,09,08,14.60
2008,05,25,09,09,14.70
2008,05,25,09,10,14.70
2008,05,25,09,11,14.80
2008,05,25,09,12,14.80
2008,05,25,09,13,14.80
2008,05,25,09,14,14.90
2008,05,25,09,15,14.90
2008,05,25,09,16,14.90
2008,05,25,09,17,15.00
2008,05,25,09,18,15.00
2008,05,25,09,19,15.00
2008,05,25,09,20,15.00
2008,05,25,09,21,15.00
2008,05,25,09,22,14.90
2008,05,25,09,23,14.90
2008,05,25,09,24,14.90
2008,05,25,09,25,14.80
2008,05,25,09,26,14.80
2008,05,25,09,27,14.80
2008,05,25,09,28,14.80
2008,05,25,09,29,14.80
2008,05,25,09,30,14.80
2008,05,25,09,31,14.80
2008,05,25,09,32,14.80
2008,05,25,09,33,14.80
2008,05,25,09,34,14.80
2008,05,25,09,35,14.80
2008,05,25,09,36,14.80
2008,05,25,09,37,14.70
2008,05,25,09,38,14.60
2008,05,25,09,39,14.60
2008,05,25,09,40,14.60
2008,05,25,09,41,14.50
2008,05,25,09,42,14.50
2008,05,25,09,43,14.50
2008,05,25,09,44,14.40
2008,05,25,09,45,14.30
2008,05,25,09,46,14.30
2008,05,25,09,47,14.20
2008,05,25,09,48,14.20
2008,05,25,09,49,14.10
2008,05,25,09,50,14.00
2008,05,25,09,51,13.90
2008,05,25,09,52,13.80
2008,05,25,09,53,13.80
2008,05,25,09,54,13.70
2008,05,25,09,55,13.70
2008,05,25,09,56,13.70
2008,05,25,09,57,13.70
2008,05,25,09,58,13.70
2008,05,25,09,59,13.70
2008,05,25,10,00,13.70
2008,05,25,10,01,13.70
2008,05,25,10,02,13.80
2008,05,25,10,03,13.80
2008,05,25,10,04,13.90
2008,05,25,10,05,13.90
2008,05,25,10,06,14.00
2008,05,25,10,07,14.10
2008,05,25,10,08,14.20
2008,05,25,10,09,14.20
2008,05,25,10,10,14.30
2008,05,25,10,11,14.40
2008,05,25,10,12,14.50
2008,05,25,10,13,14.60
2008,05,25,10,14,14.60
2008,05,25,10,15,14.80
2008,05,25,10,16,14.80
2008,05,25,10,17,15.00
2008,05,25,10,18,15.10
2008,05,25,10,19,15.10
2008,05,25,10,20,15.20
2008,05,25,10,21,15.40
2008,05,25,10,22,15.50
2008,05,25,10,23,15.70
2008,05,25,10,24,15.80
2008,05,25,10,25,15.80
2008,05,25,10,26,15.90
2008,05,25,10,27,15.90
2008,05,25,10,28,15.90
2008,05,25,10,29,15.80
2008,05,25,10,30,15.80
2008,05,25,10,31,15.80
2008,05,25,10,32,15.70
2008,05,25,10,33,15.70
2008,05,25,10,34,15.60
2008,05,25,10,35,15.50
2008,05,25,10,36,15.50
2008,05,25,10,37,15.40
2008,05,25,10,38,15.30
2008,05,25,10,39,15.30
2008,05,25,10,40,15.30
2008,05,25,10,41,15.30
2008,05,25,10,42,15.30
2008,05,25,10,43,15.30
2008,05,25,10,44,15.30
2008,05,25,10,45,15.30
2008,05,25,10,46,15.40
2008,05,25,10,47,15.50
2008,05,25,10,48,15.60
2008,05,25,10,49,15.80
2008,05,25,10,50,15.80
2008,05,25,10,51,15.90
2008,05,25,10,52,16.10
2008,05,25,10,53,16.10
2008,05,25,10,54,16.10
2008,05,25,10,55,16.20
2008,05,25,10,56,16.20
2008,05,25,10,57,16.30
2008,05,25,10,58,16.40
2008,05,25,10,59,16.50
2008,05,25,11,00,16.70
2008,05,25,11,01,16.70
2008,05,25,11,02,16.70
2008,05,25,11,03,16.70
2008,05,25,11,04,16.70
2008,05,25,11,05,16.60
2008,05,25,11,06,16.40
2008,05,25,11,07,16.40
2008,05,25,11,08,16.50
2008,05,25,11,09,16.60
2008,05,25,11,10,16.70
2008,05,25,11,11,16.80
2008,05,25,11,12,16.90
2008,05,25,11,13,17.00
2008,05,25,11,14,17.00
2008,05,25,11,15,17.00
2008,05,25,11,16,17.00
2008,05,25,11,17,17.00
2008,05,25,11,18,17.10
2008,05,25,11,19,17.10
2008,05,25,11,20,17.30
2008,05,25,11,21,17.30
2008,05,25,11,22,17.20
2008,05,25,11,23,17.10
2008,05,25,11,24,17.00
2008,05,25,11,25,17.00
2008,05,25,11,26,17.00
2008,05,25,11,27,17.00
2008,05,25,11,28,17.00
2008,05,25,11,29,17.00
2008,05,25,11,30,17.10
2008,05,25,11,31,17.10
2008,05,25,11,32,17.20
2008,05,25,11,33,17.30
2008,05,25,11,34,17.30
2008,05,25,11,35,17.30
2008,05,25,11,36,17.30
2008,05,25,11,37,17.40
2008,05,25,11,38,17.50
2008,05,25,11,39,17.60
2008,05,25,11,40,17.60
2008,05,25,11,41,17.60
2008,05,25,11,42,17.60
2008,05,25,11,43,17.50
2008,05,25,11,44,17.50
2008,05,25,11,45,17.40
2008,05,25,11,46,17.50
2008,05,25,11,47,17.50
2008,05,25,11,48,17.60
2008,05,25,11,49,17.70
2008,05,25,11,50,17.70
2008,05,25,11,51,17.80
2008,05,25,11,52,17.80
2008,05,25,11,53,17.90
2008,05,25,11,54,17.90
2008,05,25,11,55,18.00
2008,05,25,11,56,18.10
2008,05,25,11,57,18.10
2008,05,25,11,58,18.10
2008,05,25,11,59,18.20
2008,05,25,12,00,18.20
2008,05,25,12,01,18.10
2008,05,25,12,02,18.00
2008,05,25,12,03,17.90
2008,05,25,12,04,17.90
2008,05,25,12,05,17.80
2008,05,25,12,06,17.90
2008,05,25,12,07,17.80
2008,05,25,12,08,17.70
2008,05,25,12,09,17.60
2008,05,25,12,10,17.50
2008,05,25,12,11,17.40
2008,05,25,12,12,17.30
2008,05,25,12,13,17.30
2008,05,25,12,14,17.20
2008,05,25,12,15,17.30
2008,05,25,12,16,17.40
2008,05,25,12,17,17.50
2008,05,25,12,18,17.60
2008,05,25,12,19,17.70
2008,05,25,12,20,17.80
2008,05,25,12,21,17.90
2008,05,25,12,22,17.90
2008,05,25,12,23,18.00
2008,05,25,12,24,18.10
2008,05,25,12,25,18.10
2008,05,25,12,26,18.20
2008,05,25,12,27,18.20
2008,05,25,12,28,18.20
2008,05,25,12,29,18.30
2008,05,25,12,30,18.40
2008,05,25,12,31,18.50
2008,05,25,12,32,18.70
2008,05,25,12,33,18.80
2008,05,25,12,34,18.90
2008,05,25,12,35,19.00
2008,05,25,12,36,19.10
2008,05,25,12,37,19.10
2008,05,25,12,38,19.20
2008,05,25,12,39,19.20
2008,05,25,12,40,19.20
2008,05,25,12,41,19.20
2008,05,25,12,42,19.20
2008,05,25,12,43,19.20
2008,05,25,12,44,19.10
2008,05,25,12,45,19.10
2008,05,25,12,46,19.10
2008,05,25,12,47,19.10
2008,05,25,12,48,19.20
2008,05,25,12,49,19.30
2008,05,25,12,50,19.50
2008,05,25,12,51,19.60
2008,05,25,12,52,19.70
2008,05,25,12,53,19.90
2008,05,25,12,54,19.90
2008,05,25,12,55,19.90
2008,05,25,12,56,19.80
2008,05,25,12,57,19.60
2008,05,25,12,58,19.50
2008,05,25,12,59,19.40
2008,05,25,13,00,19.40
2008,05,25,13,01,19.40
2008,05,25,13,02,19.40
2008,05,25,13,03,19.30
2008,05,25,13,04,19.30
2008,05,25,13,05,19.20
2008,05,25,13,06,19.10
2008,05,25,13,07,19.10
2008,05,25,13,08,19.10
2008,05,25,13,09,19.10
2008,05,25,13,10,19.10
2008,05,25,13,11,19.10
2008,05,25,13,12,19.10
2008,05,25,13,13,19.10
2008,05,25,13,14,19.10
2008,05,25,13,15,19.10
2008,05,25,13,16,19.10
2008,05,25,13,17,19.10
2008,05,25,13,18,19.10
2008,05,25,13,19,18.90
2008,05,25,13,20,18.70
2008,05,25,13,21,18.50
2008,05,25,13,22,18.30
2008,05,25,13,23,18.20
2008,05,25,13,24,18.20
2008,05,25,13,25,18.20
2008,05,25,13,26,18.20
2008,05,25,13,27,18.10
2008,05,25,13,28,18.10
2008,05,25,13,29,18.10
2008,05,25,13,30,18.10
2008,05,25,13,31,18.00
2008,05,25,13,32,17.90
2008,05,25,13,33,17.70
2008,05,25,13,34,17.60
2008,05,25,13,35,17.50
2008,05,25,13,36,17.50
2008,05,25,13,37,17.50
2008,05,25,13,38,17.50
2008,05,25,13,39,17.60
2008,05,25,13,40,17.70
2008,05,25,13,41,17.90
2008,05,25,13,42,18.00
2008,05,25,13,43,18.20
2008,05,25,13,44,18.40
2008,05,25,13,45,18.60
2008,05,25,13,46,18.70
2008,05,25,13,47,18.80
2008,05,25,13,48,18.90
2008,05,25,13,49,18.90
2008,05,25,13,50,18.90
2008,05,25,13,51,18.80
2008,05,25,13,52,18.70
2008,05,25,13,53,18.50
2008,05,25,13,54,18.40
2008,05,25,13,55,18.30
2008,05,25,13,56,18.20
2008,05,25,13,57,18.20
2008,05,25,13,58,18.10
2008,05,25,13,59,17.90
2008,05,25,14,00,17.80
2008,05,25,14,01,17.70
2008,05,25,14,02,17.70
2008,05,25,14,03,17.60
2008,05,25,14,04,17.50
2008,05,25,14,05,17.50
2008,05,25,14,06,17.50
2008,05,25,14,07,17.50
2008,05,25,14,08,17.50
2008,05,25,14,09,17.50
2008,05,25,14,10,17.50
2008,05,25,14,11,17.50
2008,05,25,14,12,17.50
2008,05,25,14,13,17.60
2008,05,25,14,14,17.70
2008,05,25,14,15,17.70
2008,05,25,14,16,17.70
2008,05,25,14,17,17.60
2008,05,25,14,18,17.50
2008,05,25,14,19,17.50
2008,05,25,14,20,17.50
2008,05,25,14,21,17.50
2008,05,25,14,22,17.50
2008,05,25,14,23,17.60
2008,05,25,14,24,17.60
2008,05,25,14,25,17.60
2008,05,25,14,26,17.70
2008,05,25,14,27,17.70
2008,05,25,14,28,17.80
2008,05,25,14,29,17.80
2008,05,25,14,30,17.80
2008,05,25,14,31,17.80
2008,05,25,14,32,17.80
2008,05,25,14,33,17.80
2008,05,25,14,34,17.80
2008,05,25,14,35,17.90
2008,05,25,14,36,17.90
2008,05,25,14,37,17.90
2008,05,25,14,38,18.00
2008,05,25,14,39,18.10
2008,05,25,14,40,18.20
2008,05,25,14,41,18.40
2008,05,25,14,42,18.40
2008,05,25,14,43,18.40
2008,05,25,14,44,18.30
2008,05,25,14,45,18.20
2008,05,25,14,46,18.20
2008,05,25,14,47,18.20
2008,05,25,14,48,18.30
2008,05,25,14,49,18.40
2008,05,25,14,50,18.50
2008,05,25,14,51,18.60
2008,05,25,14,52,18.70
2008,05,25,14,53,18.80
2008,05,25,14,54,18.90
2008,05,25,14,55,18.90
2008,05,25,14,56,18.90
2008,05,25,14,57,18.80
2008,05,25,14,58,18.80
2008,05,25,14,59,18.60
2008,05,25,15,00,18.50
2008,05,25,15,01,18.30
2008,05,25,15,02,18.10
2008,05,25,15,03,18.10
2008,05,25,15,04,18.10
2008,05,25,15,05,18.20
2008,05,25,15,06,18.20
2008,05,25,15,07,18.10
2008,05,25,15,08,18.00
2008,05,25,15,09,17.90
2008,05,25,15,10,17.70
2008,05,25,15,11,17.70
2008,05,25,15,12,17.70
2008,05,25,15,13,17.80
2008,05,25,15,14,17.90
2008,05,25,15,15,17.90
2008,05,25,15,16,18.10
2008,05,25,15,17,18.20
2008,05,25,15,18,18.30
2008,05,25,15,19,18.50
2008,05,25,15,20,18.60
2008,05,25,15,21,18.70
2008,05,25,15,22,18.80
2008,05,25,15,23,19.00
2008,05,25,15,24,19.10
2008,05,25,15,25,19.30
2008,05,25,15,26,19.60
2008,05,25,15,27,19.80
2008,05,25,15,28,20.00
2008,05,25,15,29,20.20
2008,05,25,15,30,20.30
2008,05,25,15,31,20.50
2008,05,25,15,32,20.70
2008,05,25,15,33,21.00
2008,05,25,15,34,21.30
2008,05,25,15,35,21.50
2008,05,25,15,36,21.80
2008,05,25,15,37,22.00
2008,05,25,15,38,22.20
2008,05,25,15,39,22.30
2008,05,25,15,40,22.40
2008,05,25,15,41,22.50
2008,05,25,15,42,22.50
2008,05,25,15,43,22.50
2008,05,25,15,44,22.60
2008,05,25,15,45,22.60
2008,05,25,15,46,22.60
2008,05,25,15,47,22.70
2008,05,25,15,48,22.70
2008,05,25,15,49,22.90
2008,05,25,15,50,22.90
2008,05,25,15,51,22.90
2008,05,25,15,52,23.10
2008,05,25,15,53,23.10
2008,05,25,15,54,23.10
2008,05,25,15,55,23.10
2008,05,25,15,56,23.10
2008,05,25,15,57,23.10
2008,05,25,15,58,23.10
2008,05,25,15,59,23.10
2008,05,25,16,00,23.10
2008,05,25,16,01,23.10
2008,05,25,16,02,23.10
2008,05,25,16,03,23.10
2008,05,25,16,04,22.90
2008,05,25,16,05,22.90
2008,05,25,16,06,23.00
2008,05,25,16,07,23.10
2008,05,25,16,08,23.10
2008,05,25,16,09,23.10
2008,05,25,16,10,23.10
2008,05,25,16,11,23.00
2008,05,25,16,12,22.90
2008,05,25,16,13,22.90
2008,05,25,16,14,22.90
2008,05,25,16,15,22.90
2008,05,25,16,16,22.90
2008,05,25,16,17,23.00
2008,05,25,16,18,23.10
2008,05,25,16,19,23.10
2008,05,25,16,20,23.00
2008,05,25,16,21,22.90
2008,05,25,16,22,22.70
2008,05,25,16,23,22.60
2008,05,25,16,24,22.50
2008,05,25,16,25,22.40
2008,05,25,16,26,22.30
2008,05,25,16,27,22.40
2008,05,25,16,28,22.60
2008,05,25,16,29,22.70
2008,05,25,16,30,22.90
2008,05,25,16,31,23.00
2008,05,25,16,32,23.20
2008,05,25,16,33,23.30
2008,05,25,16,34,23.30
2008,05,25,16,35,23.30
2008,05,25,16,36,23.30
2008,05,25,16,37,23.30
2008,05,25,16,38,23.30
2008,05,25,16,39,23.30
2008,05,25,16,40,23.20
2008,05,25,16,41,23.10
2008,05,25,16,42,23.10
2008,05,25,16,43,23.10
2008,05,25,16,44,23.10
2008,05,25,16,45,23.00
2008,05,25,16,46,22.90
2008,05,25,16,47,22.90
2008,05,25,16,48,22.90
2008,05,25,16,49,22.90
2008,05,25,16,50,23.00
2008,05,25,16,51,23.10
2008,05,25,16,52,23.10
2008,05,25,16,53,22.90
2008,05,25,16,54,22.90
2008,05,25,16,55,22.90
2008,05,25,16,56,22.70
2008,05,25,16,57,22.40
2008,05,25,16,58,22.10
2008,05,25,16,59,21.80
2008,05,25,17,00,21.50
2008,05,25,17,01,21.30
2008,05,25,17,02,21.10
2008,05,25,17,03,20.80
2008,05,25,17,04,20.70
2008,05,25,17,05,20.60
2008,05,25,17,06,20.60
2008,05,25,17,07,20.60
2008,05,25,17,08,20.70
2008,05,25,17,09,20.80
2008,05,25,17,10,20.80
2008,05,25,17,11,20.80
2008,05,25,17,12,20.70
2008,05,25,17,13,20.70
2008,05,25,17,14,20.80
2008,05,25,17,15,20.80
2008,05,25,17,16,20.80
2008,05,25,17,17,21.00
2008,05,25,17,18,21.40
2008,05,25,17,19,21.80